Location: Caltech
(34.1382°N, 118.1253°W)
Time: 07:11:45
(UTC-07:00)

SL-16 R/B - Visible Passes

Search period start: 30 August 2014 00:00
Search period end: 09 September 2014 00:00
Orbit: 842 x 847 km, 71.0° (Epoch: 28 August)

Date Brightness Start Highest point End Pass type
(mag) Time Alt. Az. Time Alt. Az. Time Alt. Az.
30 Aug 2.4 03:54:24 61° ESE 03:54:41 62° ESE 04:00:16 10° NNE visible
30 Aug 3.9 05:36:18 12° W 05:39:13 17° NW 05:42:44 10° NNW visible
31 Aug 2.7 03:41:04 57° E 03:41:04 57° E 03:46:06 10° NNE visible
31 Aug 3.8 05:22:58 14° W 05:25:02 17° WNW 05:28:40 10° NNW visible
01 Sep 3.1 03:27:41 46° ENE 03:27:41 46° ENE 03:31:55 10° NNE visible
01 Sep 3.7 05:09:35 17° WNW 05:10:51 18° WNW 05:14:36 10° NNW visible
02 Sep 3.5 03:14:15 36° NE 03:14:15 36° NE 03:17:45 10° NNE visible
02 Sep 3.7 04:56:08 18° WNW 04:56:40 18° WNW 05:00:32 10° NNW visible
03 Sep 3.9 03:00:46 29° NE 03:00:46 29° NE 03:03:34 10° NNE visible
03 Sep 3.8 04:42:39 19° NW 04:42:39 19° NW 04:46:27 10° NNW visible
04 Sep 4.3 02:47:14 23° NE 02:47:14 23° NE 02:49:23 10° NNE visible
04 Sep 3.8 04:29:07 19° NW 04:29:07 19° NW 04:32:23 10° NNW visible
05 Sep 4.5 02:33:40 19° NE 02:33:40 19° NE 02:35:13 10° NNE visible
05 Sep 3.9 04:15:33 19° NW 04:15:33 19° NW 04:18:18 10° N visible
06 Sep 4.8 02:20:04 15° NE 02:20:04 15° NE 02:21:02 10° NE visible
06 Sep 4.1 04:01:57 18° NNW 04:01:57 18° NNW 04:04:12 10° N visible
07 Sep 5.0 02:06:26 12° NE 02:06:26 12° NE 02:06:51 10° NE visible
07 Sep 4.2 03:48:19 17° NNW 03:48:19 17° NNW 03:50:07 10° N visible
08 Sep 4.4 03:34:39 15° NNW 03:34:39 15° NNW 03:36:01 10° N visible
